Regional Weather Roundup
Issued by NWS

Home | Current Version | Previous Version | Graphics & Text | Print | Product List | Glossary On
Versions: 1 2 3 4 5 6 7 8 9 10 11 12 13 14 15 16 17 18 19 20 21 22 23 24 25 26 27 28 29 30 31 32 33 34 35
000
ASUS45 KBOI 220410
RWRID
WEATHER ROUNDUP FOR IDAHO
NATIONAL WEATHER SERVICE BOISE ID
1000 PM MDT TUE OCT 21 2014

NOTE: "FAIR" INDICATES FEW OR NO CLOUDS BELOW 12000 FEET
WITH NO SIGNIFICANT WEATHER AND/OR OBSTRUCTIONS TO VISIBILITY

IDZ012-014-220500-
SOUTHWEST IDAHO


CITY           SKY/WX    TMP DP  RH WIND       PRES   REMARKS
BOISE          CLEAR     48  41  76 SE9       30.05S
CALDWELL       CLEAR     46  30  53 SE8       30.06S
MOUNTAIN HOME  CLEAR     44  38  81 E5        30.07S
$$

IDZ016-017-220500-
SOUTHCENTRAL IDAHO


CITY           SKY/WX    TMP DP  RH WIND       PRES   REMARKS
BURLEY         CLEAR     40  34  79 SW10      30.09R WCI  33
JEROME         CLEAR     43  36  76 SE6       30.10R
TWIN FALLS     CLEAR     41  33  73 S10       30.10S
$$

IDZ019>023-220500-
SOUTHEAST IDAHO


CITY           SKY/WX    TMP DP  RH WIND       PRES   REMARKS
IDAHO FALLS    PTCLDY    46  35  65 S14       30.08S
POCATELLO      CLEAR     45  35  68 SW14      30.10S
REXBURG        CLOUDY    45  34  65 SW6       30.07S
$$

IDZ006-010-011-018-031-032-220500-
CENTRAL IDAHO MOUNTAINS


CITY           SKY/WX    TMP DP  RH WIND       PRES   REMARKS
MCCALL         MOCLDY    35  34  96 NE5       30.07R WCI  31
HAILEY         CLEAR     37  30  75 W8        30.09S WCI  31
STANLEY          N/A     34  31  88 CALM      30.12R
SALMON         PTCLDY   N/A N/A N/A MISG        N/A
CHALLIS        PTCLDY    38  35  89 CALM      30.09R
$$

IDZ002-004-006-007-026-220500-
NORTHERN IDAHO


CITY           SKY/WX    TMP DP  RH WIND       PRES   REMARKS
LEWISTON       CLEAR     51  41  68 CALM      30.00R
LOWELL           N/A     48  47  96 CALM      30.08R
COEUR D`ALENE  PTCLDY    48  39  71 S9        29.97S
MULLAN PASS    CLOUDY    35  35 100 VRB5      30.01R WCI  31
$$



USA.gov is the U.S. government's official web portal to all federal, state and local government web resources and services.